KC1SQ Weather Reports


Display with metric or nautical units.
time (UTC)temp
F
wind
direction
speed
MPH
gust
MPH
rain 1hr
in
rain 24hr
in
rain mn
in
humidity
%
barometer
mb
20260905193427 73 191 0.0 0.0 0.00 0.00 0.00 50 1010.8
20260905192925 73 191 0.0 0.0 0.00 0.00 0.00 48 1010.9
20260905192426 73 191 0.0 0.0 0.00 0.00 0.00 49 1010.9
20260905191925 74 191 0.0 0.0 0.00 0.00 0.00 48 1010.9
20260905191649 74 191 0.0 0.0 0.00 0.00 0.00 48 1010.8
20260905190926 74 190 0.0 0.0 0.00 0.00 0.00 47 1010.8
20260905190421 74 198 0.0 0.0 0.00 0.00 0.00 47 1010.7
20260905185921 75 198 0.0 0.0 0.00 0.00 0.00 48 1010.8
20260905185421 75 198 0.0 0.0 0.00 0.00 0.00 48 1010.7
20260905184921 74 198 0.0 0.0 0.00 0.00 0.00 51 1010.7
20260905184422 73 197 0.0 0.0 0.00 0.00 0.00 50 1010.7
20260905183920 72 197 0.0 0.0 0.00 0.00 0.00 52 1010.7
20260905183421 72 197 0.0 0.0 0.00 0.00 0.00 52 1010.7
20260905182921 71 199 0.0 0.0 0.00 0.00 0.00 55 1010.8
20260905182422 71 199 0.0 0.0 0.00 0.00 0.00 53 1011.0
20260905181917 70 198 0.0 0.0 0.00 0.00 0.00 52 1011.0
20260905181637 70 198 0.0 1.0 0.00 0.00 0.00 53 1011.1
20260905181140 70 198 0.0 1.0 0.00 0.00 0.00 54 1011.0
20260905180417 71 194 0.0 0.0 0.00 0.00 0.00 53 1011.0
20260905175918 71 194 0.0 0.0 0.00 0.00 0.00 54 1011.0
20260905175416 71 198 0.0 0.0 0.00 0.00 0.00 54 1011.1
20260905174918 71 198 0.0 0.0 0.00 0.00 0.00 55 1011.0
20260905174416 70 198 0.0 0.0 0.00 0.00 0.00 57 1011.0
20260905174136 70 198 0.0 0.0 0.00 0.00 0.00 55 1011.0
20260905173636 70 198 0.0 0.0 0.00 0.00 0.00 55 1011.1
20260905173139 69 197 0.0 0.0 0.00 0.00 0.00 58 1011.0
20260905172414 68 197 0.0 0.0 0.00 0.00 0.00 58 1011.0
20260905172133 68 197 0.0 0.0 0.00 0.00 0.00 59 1011.0
20260905171412 68 198 0.0 0.0 0.00 0.00 0.00 59 1011.0
20260905170910 68 198 0.0 0.0 0.00 0.00 0.00 60 1010.9
20260905170410 68 198 0.0 0.0 0.00 0.00 0.00 60 1010.9
20260905165908 68 198 0.0 0.0 0.00 0.00 0.00 60 1010.9
20260905165409 68 198 0.0 0.0 0.00 0.00 0.00 61 1011.0
20260905164907 67 198 0.0 0.0 0.00 0.00 0.00 61 1010.9
20260905164406 67 198 0.0 0.0 0.00 0.00 0.00 61 1011.0
20260905163904 67 198 0.0 0.0 0.00 0.00 0.00 60 1011.1
20260905163622 67 198 0.0 0.0 0.00 0.00 0.00 60 1011.1
20260905162900 67 198 0.0 0.0 0.00 0.00 0.00 60 1011.1
20260905162357 67 198 0.0 0.0 0.00 0.00 0.00 60 1011.1
20260905161856 68 198 0.0 0.0 0.00 0.00 0.00 62 1011.1
20260905161354 68 198 0.0 0.0 0.00 0.00 0.00 62 1011.1
20260905160855 67 198 0.0 0.0 0.00 0.00 0.00 63 1011.0
20260905160350 67 198 0.0 0.0 0.00 0.00 0.00 63 1011.0
20260905155842 67 198 0.0 0.0 0.00 0.00 0.00 62 1011.0
20260905155337 68 198 0.0 0.0 0.00 0.00 0.00 62 1011.1
20260905154831 68 198 0.0 0.0 0.00 0.00 0.00 62 1011.0
20260905154325 68 198 0.0 0.0 0.00 0.00 0.00 61 1011.0
20260905153819 67 198 0.0 0.0 0.00 0.00 0.00 61 1010.9
20260905153313 68 198 0.0 0.0 0.00 0.00 0.00 61 1010.9
20260905153035 68 198 0.0 0.0 0.00 0.00 0.00 61 1010.9
20260905152301 68 198 0.0 0.0 0.00 0.00 0.00 61 1010.8
20260905151755 68 198 0.0 0.0 0.00 0.00 0.00 61 1010.8
20260905151249 68 198 0.0 0.0 0.00 0.00 0.00 61 1010.8
20260905150742 67 198 0.0 0.0 0.00 0.00 0.00 61 1010.8
20260905150236 67 198 0.0 0.0 0.00 0.00 0.00 61 1010.7
20260905145731 67 198 0.0 0.0 0.00 0.00 0.00 62 1010.8
20260905145225 66 198 0.0 0.0 0.00 0.00 0.00 61 1010.8
20260905144719 66 198 0.0 0.0 0.00 0.00 0.00 61 1010.8
20260905144213 66 198 0.0 0.0 0.00 0.00 0.00 62 1010.8
20260905143707 66 198 0.0 0.0 0.00 0.00 0.00 62 1010.8
20260905143201 66 198 0.0 0.0 0.00 0.00 0.00 62 1010.8
20260905142655 66 198 0.0 0.0 0.00 0.00 0.00 61 1010.7
20260905142414 66 198 0.0 0.0 0.00 0.00 0.00 62 1010.7
20260905141643 65 198 0.0 0.0 0.00 0.00 0.00 62 1010.6
20260905141137 65 198 0.0 0.0 0.00 0.00 0.00 62 1010.5
20260905140631 65 198 0.0 0.0 0.00 0.00 0.00 63 1010.5
20260905140125 65 198 0.0 0.0 0.00 0.00 0.00 62 1010.5
20260905135619 65 176 0.0 0.0 0.00 0.00 0.00 62 1010.5
20260905135112 65 177 0.0 0.0 0.00 0.00 0.00 63 1010.4
20260905134607 65 177 0.0 0.0 0.00 0.00 0.00 63 1010.4
20260905134101 65 177 0.0 0.0 0.00 0.00 0.00 63 1010.4
20260905133555 65 176 0.0 0.0 0.00 0.00 0.00 62 1010.3
20260905133308 65 176 0.0 0.0 0.00 0.00 0.00 62 1010.2
20260905132543 65 197 0.0 0.0 0.00 0.00 0.00 62 1010.2
20260905132305 65 197 0.0 0.0 0.00 0.00 0.00 62 1010.2
20260905131531 65 182 0.0 0.0 0.00 0.00 0.00 62 1010.1
20260905131025 65 179 0.0 0.0 0.00 0.00 0.00 63 1010.0
20260905130519 64 189 0.0 0.0 0.00 0.00 0.00 62 1010.1
20260905130013 64 189 0.0 0.0 0.00 0.00 0.00 62 1010.0
20260905125729 65 189 0.0 0.0 0.00 0.00 0.00 62 1010.0
20260905125001 65 189 0.0 0.0 0.00 0.00 0.00 63 1009.9
20260905124454 65 189 0.0 0.0 0.00 0.00 0.00 63 1009.9
20260905123948 65 189 0.0 0.0 0.00 0.00 0.00 63 1009.9
20260905123442 65 189 0.0 0.0 0.00 0.00 0.00 64 1009.8
20260905123202 64 189 0.0 0.0 0.00 0.00 0.00 64 1009.8
20260905122431 64 189 0.0 0.0 0.00 0.00 0.00 64 1009.7
20260905121925 64 189 0.0 0.0 0.00 0.00 0.00 64 1009.7
20260905121419 64 189 0.0 0.0 0.00 0.00 0.00 65 1009.6
20260905120914 64 189 0.0 0.0 0.00 0.00 0.00 65 1009.6
20260905120407 64 189 0.0 0.0 0.00 0.00 0.00 64 1009.7
20260905115904 64 189 0.0 0.0 0.00 0.00 0.00 65 1009.7
20260905115614 64 189 0.0 0.0 0.00 0.00 0.00 65 1009.6
20260905114849 64 189 0.0 0.0 0.00 0.00 0.00 65 1009.6
20260905114343 64 189 0.0 0.0 0.00 0.00 0.00 65 1009.5
20260905113837 63 189 0.0 0.0 0.00 0.00 0.00 65 1009.5
20260905113331 63 189 0.0 0.0 0.00 0.00 0.00 65 1009.4
20260905112825 63 189 0.0 0.0 0.00 0.00 0.00 65 1009.4
20260905112319 63 189 0.0 0.0 0.00 0.00 0.00 65 1009.3
20260905112032 63 189 0.0 0.0 0.00 0.00 0.00 65 1009.3
20260905111307 63 189 0.0 0.0 0.00 0.00 0.00 66 1009.3
20260905110801 62 189 0.0 1.0 0.00 0.00 0.00 66 1009.2
20260905110256 62 189 0.0 1.0 0.00 0.00 0.00 65 1009.1
20260905110020 62 190 0.0 2.0 0.00 0.00 0.00 66 1009.1
20260905105243 62 190 0.0 2.0 0.00 0.00 0.00 66 1009.2
20260905104737 62 190 0.0 0.0 0.00 0.00 0.00 67 1009.1
20260905104232 62 190 0.0 0.0 0.00 0.00 0.00 67 1009.0
20260905103724 62 190 0.0 0.0 0.00 0.00 0.00 67 1009.0
20260905103219 62 190 0.0 0.0 0.00 0.00 0.00 67 1008.9
20260905102713 62 190 0.0 0.0 0.00 0.00 0.00 67 1008.9
20260905102207 62 190 0.0 0.0 0.00 0.00 0.00 67 1008.7
20260905101701 62 190 0.0 0.0 0.00 0.00 0.00 67 1008.7
20260905101155 62 190 0.0 0.0 0.00 0.00 0.00 67 1008.7
20260905100925 62 190 0.0 0.0 0.00 0.00 0.00 67 1008.7
20260905100152 62 190 0.0 0.0 0.00 0.00 0.00 67 1008.9
20260905095651 62 190 0.0 0.0 0.00 0.00 0.00 67 1008.6
20260905095412 62 190 0.0 0.0 0.00 0.00 0.00 68 1008.7
20260905094645 62 190 0.0 0.0 0.00 0.00 0.00 68 1008.6
20260905094406 62 190 0.0 0.0 0.00 0.00 0.00 68 1008.6
20260905093642 62 190 0.0 0.0 0.00 0.00 0.00 68 1008.6
20260905093142 62 190 0.0 0.0 0.00 0.00 0.00 68 1008.5
20260905092643 62 190 0.0 0.0 0.00 0.00 0.00 69 1008.5
20260905092140 61 190 0.0 0.0 0.00 0.00 0.00 69 1008.4
20260905091901 61 190 0.0 0.0 0.00 0.00 0.00 69 1008.4
20260905091137 61 190 0.0 0.0 0.00 0.00 0.00 69 1008.4
20260905090634 61 190 0.0 0.0 0.00 0.00 0.00 69 1008.4
20260905090356 61 190 0.0 0.0 0.00 0.00 0.00 69 1008.3
20260905085856 61 190 0.0 0.0 0.00 0.00 0.00 69 1008.2
20260905085133 61 190 0.0 0.0 0.00 0.00 0.00 69 1008.2
20260905084631 60 190 0.0 0.0 0.00 0.00 0.00 69 1008.2
20260905084129 60 190 0.0 0.0 0.00 0.00 0.00 69 1008.2
20260905083627 60 190 0.0 0.0 0.00 0.00 0.00 69 1008.1
20260905083128 60 190 0.0 0.0 0.00 0.00 0.00 68 1008.1
20260905082629 60 190 0.0 0.0 0.00 0.00 0.00 68 1008.1
20260905082344 60 190 0.0 0.0 0.00 0.00 0.00 68 1007.9
20260905081628 60 190 0.0 0.0 0.00 0.00 0.00 68 1008.0
20260905081128 60 190 0.0 0.0 0.00 0.00 0.00 68 1008.0
20260905080628 60 190 0.0 0.0 0.00 0.00 0.00 68 1008.0
20260905080615 60 190 0.0 0.0 0.00 0.00 0.00 68 1008.0
20260905075628 60 190 0.0 0.0 0.00 0.00 0.00 67 1008.0
20260905075127 60 190 0.0 0.0 0.00 0.00 0.00 68 1008.0
20260905074719 60 190 0.0 0.0 0.00 0.00 0.00 68 1007.9
20260905073629 60 190 0.0 0.0 0.00 0.00 0.00 68 1007.9
20260905073130 60 190 0.0 0.0 0.00 0.00 0.00 68 1008.0
20260905072628 60 190 0.0 0.0 0.00 0.00 0.00 67 1008.0
20260905072345 60 190 0.0 0.0 0.00 0.00 0.00 67 1008.0
20260905071629 60 190 0.0 0.0 0.00 0.00 0.00 67 1008.1
20260905071127 61 190 0.0 0.0 0.00 0.00 0.00 68 1008.2
20260905071117 61 190 0.0 0.0 0.00 0.00 0.00 69 1008.2
20260905070126 61 190 0.0 0.0 0.00 0.00 0.00 68 1008.2
20260905065625 61 190 0.0 0.0 0.00 0.00 0.00 68 1008.2
20260905065123 61 190 0.0 0.0 0.00 0.00 0.00 68 1008.2
20260905064625 61 190 0.0 0.0 0.00 0.00 0.00 69 1008.4
20260905064124 60 190 0.0 0.0 0.00 0.00 0.00 69 1008.3
20260905063624 60 190 0.0 0.0 0.00 0.00 0.00 69 1008.4
20260905063121 60 190 0.0 0.0 0.00 0.00 0.00 69 1008.3
20260905062620 60 190 0.0 0.0 0.00 0.00 0.00 69 1008.2
20260905062119 60 190 0.0 0.0 0.00 0.00 0.00 68 1008.2
20260905061619 60 190 0.0 0.0 0.00 0.00 0.00 69 1008.2
20260905061117 60 190 0.0 0.0 0.00 0.00 0.00 68 1008.2
20260905060618 60 190 0.0 0.0 0.00 0.00 0.00 68 1008.2
20260905060112 60 190 0.0 0.0 0.00 0.00 0.00 67 1008.3
20260905055606 60 190 0.0 0.0 0.00 0.00 0.00 67 1008.3
20260905055100 60 190 0.0 0.0 0.00 0.00 0.00 67 1008.3
20260905054816 60 190 0.0 0.0 0.00 0.00 0.00 67 1008.4
20260905054048 60 190 0.0 0.0 0.00 0.00 0.00 67 1008.4
20260905053801 60 190 0.0 0.0 0.00 0.00 0.00 67 1008.4
20260905053036 60 190 0.0 0.0 0.00 0.00 0.00 67 1008.4
20260905052530 60 190 0.0 0.0 0.00 0.00 0.00 67 1008.5
20260905052024 60 190 0.0 0.0 0.00 0.00 0.00 67 1008.4
20260905051519 60 190 0.0 0.0 0.00 0.00 0.00 66 1008.4
20260905051450 60 190 0.0 0.0 0.00 0.00 0.00 66 1008.5
20260905050506 61 190 0.0 0.0 0.00 0.00 0.00 66 1008.5
20260905050000 61 190 0.0 0.0 0.00 0.00 0.00 67 1008.5
20260905045454 61 190 0.0 0.0 0.00 0.00 0.00 66 1008.4
20260905045213 61 190 0.0 0.0 0.00 0.00 0.00 66 1008.3
20260905044442 61 190 0.0 0.0 0.00 0.00 0.00 66 1008.3
20260905043936 61 190 0.0 0.0 0.00 0.00 0.00 66 1008.3
20260905043430 62 190 0.0 0.0 0.00 0.00 0.00 66 1008.3
20260905042931 62 190 0.0 0.0 0.00 0.00 0.00 66 1008.3
20260905042428 62 190 0.0 0.0 0.00 0.00 0.00 67 1008.2
20260905041927 62 190 0.0 0.0 0.00 0.00 0.00 67 1008.3
20260905041425 62 190 0.0 0.0 0.00 0.00 0.00 67 1008.3
20260905040922 62 190 0.0 0.0 0.00 0.00 0.00 67 1008.4
20260905040419 62 190 0.0 0.0 0.00 0.00 0.00 67 1008.4
20260905040135 62 190 0.0 0.0 0.00 0.00 0.00 67 1008.4
20260905035417 63 190 0.0 0.0 0.00 0.00 0.00 67 1008.4
20260905035141 63 190 0.0 0.0 0.00 0.00 0.00 66 1008.4
20260905034413 64 190 0.0 0.0 0.00 0.00 0.00 66 1008.5
20260905033911 64 190 0.0 0.0 0.00 0.00 0.00 66 1008.4
20260905033409 64 190 0.0 0.0 0.00 0.00 0.00 66 1008.5
20260905032910 64 190 0.0 0.0 0.00 0.00 0.00 66 1008.5
20260905032409 64 190 0.0 0.0 0.00 0.00 0.00 66 1008.5
20260905031907 64 190 0.0 0.0 0.00 0.00 0.00 65 1008.5
20260905031404 64 190 0.0 0.0 0.00 0.00 0.00 65 1008.5
20260905030902 65 190 0.0 0.0 0.00 0.00 0.00 65 1008.5
20260905030401 65 190 0.0 0.0 0.00 0.00 0.00 65 1008.6
20260905030118 65 190 0.0 0.0 0.00 0.00 0.00 64 1008.6
20260905025849 65 190 0.0 0.0 0.00 0.00 0.00 65 1008.5
20260905024853 65 190 0.0 0.0 0.00 0.00 0.00 65 1008.5
20260905024352 65 194 0.0 0.0 0.00 0.00 0.00 66 1008.4
20260905023852 65 194 0.0 0.0 0.00 0.00 0.00 65 1008.5
20260905023344 65 194 0.0 0.0 0.00 0.00 0.00 64 1008.5
20260905022837 65 194 0.0 0.0 0.00 0.00 0.00 64 1008.5
20260905022332 66 194 0.0 0.0 0.00 0.00 0.00 64 1008.6
20260905021826 66 194 0.0 0.0 0.00 0.00 0.00 64 1008.6
20260905021320 66 194 0.0 0.0 0.00 0.00 0.00 64 1008.7
20260905020814 66 194 0.0 0.0 0.00 0.00 0.00 64 1008.6
20260905020308 66 194 0.0 0.0 0.00 0.00 0.00 65 1008.6
20260905015802 66 194 0.0 0.0 0.00 0.00 0.00 63 1008.6
20260905015256 66 194 0.0 0.0 0.00 0.00 0.00 63 1008.6
20260905015008 66 194 0.0 0.0 0.00 0.00 0.00 64 1008.6
20260905014244 66 194 0.0 0.0 0.00 0.00 0.00 64 1008.7
20260905013738 67 194 0.0 0.0 0.00 0.00 0.00 65 1008.9
20260905013232 67 194 0.0 0.0 0.00 0.00 0.00 64 1008.9
20260905012726 67 194 0.0 0.0 0.00 0.00 0.00 64 1009.0
20260905012220 67 194 0.0 0.0 0.00 0.00 0.00 65 1009.0
20260905011714 67 194 0.0 0.0 0.00 0.00 0.00 64 1009.0
20260905011208 67 194 0.0 0.0 0.00 0.00 0.00 64 1008.9
20260905010702 67 194 0.0 0.0 0.00 0.00 0.00 64 1008.9
20260905010156 67 194 0.0 0.0 0.00 0.00 0.00 65 1008.9
20260905005650 67 194 0.0 0.0 0.00 0.00 0.00 65 1008.7
20260905005143 67 194 0.0 0.0 0.00 0.00 0.00 66 1008.7
20260905004638 67 194 0.0 0.0 0.00 0.00 0.00 64 1008.7
20260905004358 67 194 0.0 0.0 0.00 0.00 0.00 63 1008.9
20260905003626 67 194 0.0 0.0 0.00 0.00 0.00 64 1009.0
20260905003120 67 194 0.0 0.0 0.00 0.00 0.00 63 1008.9
20260905002614 67 194 0.0 0.0 0.00 0.00 0.00 63 1009.0
20260905002108 68 194 0.0 0.0 0.00 0.00 0.00 63 1009.1
20260905001602 68 194 0.0 0.0 0.00 0.00 0.00 63 1009.0
20260905001056 68 194 0.0 0.0 0.00 0.00 0.00 64 1008.9
20260905000550 68 194 0.0 0.0 0.00 0.00 0.00 62 1008.7
20260905000044 69 194 0.0 0.0 0.00 0.00 0.00 62 1008.6
20260904235759 69 194 0.0 0.0 0.00 0.00 0.00 61 1008.6
20260904235032 69 194 0.0 0.0 0.00 0.00 0.00 59 1008.6
20260904234526 69 194 0.0 0.0 0.00 0.00 0.00 62 1008.4
20260904234020 69 194 0.0 0.0 0.00 0.00 0.00 61 1008.4
20260904233514 70 194 0.0 0.0 0.00 0.00 0.00 60 1008.4
20260904233008 70 194 0.0 0.0 0.00 0.00 0.00 60 1008.4
20260904232724 70 194 0.0 0.0 0.00 0.00 0.00 60 1008.4
20260904231956 70 194 0.0 0.0 0.00 0.00 0.00 60 1008.3
20260904231450 70 194 0.0 0.0 0.00 0.00 0.00 59 1008.4
20260904230944 71 194 0.0 0.0 0.00 0.00 0.00 59 1008.4
20260904230440 71 194 0.0 0.0 0.00 0.00 0.00 59 1008.4
20260904225932 71 194 0.0 0.0 0.00 0.00 0.00 59 1008.3
20260904225426 71 194 0.0 0.0 0.00 0.00 0.00 59 1008.4
20260904225142 71 194 0.0 0.0 0.00 0.00 0.00 58 1008.4
20260904224414 72 194 0.0 0.0 0.00 0.00 0.00 59 1008.3
20260904223907 72 194 0.0 0.0 0.00 0.00 0.00 59 1008.3
20260904223402 72 194 0.0 0.0 0.00 0.00 0.00 58 1008.3
20260904223124 72 194 0.0 0.0 0.00 0.00 0.00 58 1008.1
20260904222350 72 194 0.0 0.0 0.00 0.00 0.00 57 1008.2
20260904221844 73 194 0.0 0.0 0.00 0.00 0.00 55 1008.3
20260904221338 73 194 0.0 0.0 0.00 0.00 0.00 55 1008.3
20260904220832 73 194 0.0 0.0 0.00 0.00 0.00 55 1008.3
20260904220326 73 194 0.0 0.0 0.00 0.00 0.00 53 1008.4
20260904215820 73 194 0.0 0.0 0.00 0.00 0.00 57 1008.3
20260904215315 74 194 0.0 0.0 0.00 0.00 0.00 54 1008.3
20260904214808 74 194 0.0 0.0 0.00 0.00 0.00 54 1008.2
20260904214526 74 194 0.0 0.0 0.00 0.00 0.00 54 1008.2
20260904213756 74 194 0.0 0.0 0.00 0.00 0.00 54 1008.1
20260904213250 75 204 0.0 0.0 0.00 0.00 0.00 53 1008.1
20260904212744 75 205 0.0 0.0 0.00 0.00 0.00 54 1008.0
20260904212238 76 207 0.0 0.0 0.00 0.00 0.00 54 1008.2
20260904211732 76 207 0.0 0.0 0.00 0.00 0.00 53 1008.1
20260904211226 77 207 0.0 0.0 0.00 0.00 0.00 51 1008.2
20260904210720 78 207 0.0 0.0 0.00 0.00 0.00 49 1008.1
20260904210441 78 206 0.0 0.0 0.00 0.00 0.00 50 1008.1
20260904205709 79 206 0.0 0.0 0.00 0.00 0.00 51 1008.1
20260904205203 79 209 0.0 0.0 0.00 0.00 0.00 51 1008.0
20260904204656 79 206 0.0 0.0 0.00 0.00 0.00 56 1007.9
20260904204150 79 206 0.0 0.0 0.00 0.00 0.00 55 1007.9
20260904203644 79 206 0.0 0.0 0.00 0.00 0.00 55 1007.8
20260904203138 78 206 0.0 0.0 0.00 0.00 0.00 53 1008.0
20260904202633 78 202 0.0 0.0 0.00 0.00 0.00 54 1008.0
20260904202126 77 202 0.0 0.0 0.00 0.00 0.00 56 1007.9
20260904201852 77 202 0.0 0.0 0.00 0.00 0.00 60 1007.9
20260904201113 76 202 0.0 0.0 0.00 0.00 0.00 58 1008.0
20260904200612 75 202 0.0 0.0 0.00 0.00 0.00 59 1008.0
20260904200114 75 202 0.0 0.0 0.00 0.00 0.00 63 1008.0
20260904195612 74 202 0.0 0.0 0.00 0.00 0.00 65 1008.0
20260904195110 74 202 0.0 0.0 0.00 0.00 0.00 65 1007.9
20260904194612 74 202 0.0 0.0 0.00 0.00 0.00 67 1008.0
20260904194110 74 202 0.0 0.0 0.00 0.00 0.00 68 1008.0